Weather History for Wahpeton, ND

Change the Weather History Date:

Thursday, February 7, 2013

  Actual Average (KFFM) Record (KFFM)
Temperature  
Mean Temperature 14 °F -  
Max Temperature 24 °F 19 °F 50 °F (2002)
Min Temperature 5 °F 0 °F -28 °F (1972)
Degree Days  
Heating Degree Days 50    
Moisture  
Dew Point 15 °F    
Average Humidity 86    
Maximum Humidity 93    
Minimum Humidity 79    
Precipitation  
Precipitation 0.00 in - - ()
Sea Level Pressure  
Sea Level Pressure 30.20 in    
Wind  
Wind Speed 8 mph (North)    
Max Wind Speed 16 mph    
Max Gust Speed -    
Visibility 8 miles    
Events      
Averages and records for this station are not official NWS values.
T = Trace of Precipitation, MM = Missing Value Source: NWS Daily Summary

Daily Weather History Graph

Daily Weather History Graph

Search for Another Location

Airport:

Trip Planner

Search our weather history database for the weather conditions in past years. The results will help you decide how hot, cold, wet, or windy it might be!

Date:

Astronomy

Feb. 07, 2013 Rise Set
Actual Time 7:41 AM CST 5:40 PM CST
Civil Twilight 7:09 AM CST 6:12 PM CST
Nautical Twilight 6:34 AM CST 6:47 PM CST
Astronomical Twilight 5:59 AM CST 7:22 PM CST
Moon 5:27 AM CST (2/7) 3:01 PM CST (2/7)
Length of Visible Light 11h 02m
Length of Day
9h 59m
Waning Crescent, 9% of the Moon is Illuminated
Feb 7
Waning Crescent
Feb 10
New
Feb 17
First Quarter
Feb 25
Full
Mar 4
Last Quarter

Hourly Weather History & Observations

Time (CST) Temp. Windchill Dew Point Humidity Pressure Visibility Wind Dir Wind Speed Gust Speed Precip Events Conditions
12:15 AM 24.8 °F 16.9 °F 21.2 °F 86% 30.07 in 3.0 mi NNE 6.9 mph - N/A   Overcast
12:35 AM 23.0 °F 14.7 °F 21.2 °F 93% 30.08 in 3.0 mi NNE 6.9 mph - N/A   Overcast
12:55 AM 23.0 °F 14.7 °F 21.2 °F 93% 30.08 in 5.0 mi NE 6.9 mph - N/A   Overcast
1:15 AM 23.0 °F 14.7 °F 21.2 °F 93% 30.08 in 5.0 mi NNE 6.9 mph - N/A   Overcast
1:35 AM 23.0 °F 14.7 °F 21.2 °F 93% 30.08 in 7.0 mi NNE 6.9 mph - N/A   Overcast
1:55 AM 23.0 °F 14.7 °F 21.2 °F 93% 30.09 in 7.0 mi NNE 6.9 mph - N/A   Overcast
2:15 AM 23.0 °F 14.7 °F 19.4 °F 86% 30.09 in 7.0 mi NNE 6.9 mph - N/A   Overcast
2:35 AM 23.0 °F 14.7 °F 19.4 °F 86% 30.09 in 7.0 mi NNE 6.9 mph - N/A   Overcast
2:55 AM 23.0 °F 15.8 °F 19.4 °F 86% 30.09 in 7.0 mi NNE 5.8 mph - N/A   Overcast
3:15 AM 23.0 °F 12.4 °F 19.4 °F 86% 30.09 in 7.0 mi NNE 10.4 mph - N/A   Overcast
3:35 AM 23.0 °F 13.9 °F 19.4 °F 86% 30.10 in 7.0 mi NNE 8.1 mph - N/A   Overcast
3:55 AM 23.0 °F 13.9 °F 19.4 °F 86% 30.11 in 7.0 mi NNE 8.1 mph - N/A   Overcast
4:15 AM 23.0 °F 13.1 °F 19.4 °F 86% 30.11 in 7.0 mi NNE 9.2 mph - N/A   Overcast
4:35 AM 21.2 °F 10.9 °F 19.4 °F 93% 30.11 in 10.0 mi NNE 9.2 mph - N/A   Overcast
4:55 AM 21.2 °F 11.7 °F 19.4 °F 93% 30.12 in 10.0 mi North 8.1 mph - N/A   Overcast
5:15 AM 21.2 °F 10.1 °F 17.6 °F 86% 30.13 in 10.0 mi North 10.4 mph - N/A   Overcast
5:35 AM 21.2 °F 10.9 °F 17.6 °F 86% 30.13 in 10.0 mi NNE 9.2 mph - N/A   Overcast
5:55 AM 21.2 °F 10.1 °F 17.6 °F 86% 30.13 in 10.0 mi North 10.4 mph - N/A   Overcast
6:15 AM 21.2 °F 10.9 °F 17.6 °F 86% 30.14 in 10.0 mi NNE 9.2 mph - N/A   Overcast
6:35 AM 21.2 °F 10.9 °F 17.6 °F 86% 30.14 in 10.0 mi NE 9.2 mph - N/A   Overcast
6:55 AM 21.2 °F 7.8 °F 17.6 °F 86% 30.14 in 10.0 mi NE 15.0 mph - N/A   Overcast
7:15 AM 21.2 °F 11.7 °F 17.6 °F 86% 30.13 in 10.0 mi NE 8.1 mph - N/A   Overcast
7:35 AM 21.2 °F 12.6 °F 17.6 °F 86% 30.15 in 10.0 mi NNE 6.9 mph - N/A   Overcast
7:55 AM 21.2 °F 13.6 °F 17.6 °F 86% 30.16 in 10.0 mi North 5.8 mph - N/A   Overcast
8:15 AM 21.2 °F 11.7 °F 17.6 °F 86% 30.17 in 10.0 mi North 8.1 mph - N/A   Overcast
8:35 AM 21.2 °F 11.7 °F 17.6 °F 86% 30.18 in 10.0 mi North 8.1 mph - N/A   Overcast
8:55 AM 21.2 °F 8.9 °F 17.6 °F 86% 30.19 in 10.0 mi North 12.7 mph - N/A   Overcast
9:15 AM 21.2 °F 9.5 °F 17.6 °F 86% 30.20 in 10.0 mi North 11.5 mph - N/A   Overcast
9:35 AM 21.2 °F 9.5 °F 17.6 °F 86% 30.21 in 10.0 mi North 11.5 mph - N/A   Overcast
9:55 AM 19.4 °F 6.6 °F 14.0 °F 80% 30.22 in 10.0 mi NW 12.7 mph - N/A   Overcast
10:15 AM 17.6 °F 6.4 °F 14.0 °F 86% 30.22 in 10.0 mi NNW 9.2 mph - N/A   Overcast
10:35 AM 19.4 °F 7.9 °F 14.0 °F 80% 30.22 in 10.0 mi North 10.4 mph - N/A   Overcast
10:55 AM 19.4 °F 8.6 °F 14.0 °F 80% 30.22 in 10.0 mi NNW 9.2 mph - N/A   Overcast
11:15 AM 19.4 °F 5.0 °F 14.0 °F 80% 30.24 in 10.0 mi NNW 16.1 mph - N/A   Overcast
11:35 AM 17.6 °F 3.7 °F 12.2 °F 79% 30.24 in 10.0 mi NNW 13.8 mph - N/A   Overcast
11:55 AM 17.6 °F 5.0 °F 12.2 °F 79% 30.24 in 5.0 mi NNW 11.5 mph - N/A   Overcast
12:15 PM 17.6 °F 5.0 °F 12.2 °F 79% 30.23 in 7.0 mi NNW 11.5 mph - N/A   Overcast
12:35 PM 19.4 °F 7.9 °F 14.0 °F 80% 30.23 in 7.0 mi North 10.4 mph - N/A   Overcast
12:55 PM 19.4 °F 7.2 °F 14.0 °F 80% 30.23 in 10.0 mi North 11.5 mph - N/A   Overcast
1:15 PM 19.4 °F 8.6 °F 15.8 °F 86% 30.23 in 10.0 mi North 9.2 mph - N/A   Overcast
1:35 PM 19.4 °F 8.6 °F 15.8 °F 86% 30.23 in 10.0 mi North 9.2 mph - N/A   Overcast
1:55 PM 21.2 °F 14.9 °F 15.8 °F 80% 30.22 in 10.0 mi NNE 4.6 mph - N/A   Overcast
2:15 PM 21.2 °F 10.9 °F 15.8 °F 80% 30.22 in 10.0 mi North 9.2 mph - N/A   Overcast
2:35 PM 21.2 °F 13.6 °F 17.6 °F 86% 30.22 in 10.0 mi North 5.8 mph - N/A   Overcast
2:55 PM 21.2 °F 11.7 °F 15.8 °F 80% 30.22 in 10.0 mi North 8.1 mph - N/A   Overcast
3:15 PM 21.2 °F 11.7 °F 15.8 °F 80% 30.23 in 10.0 mi NNW 8.1 mph - N/A   Overcast
3:35 PM 21.2 °F 11.7 °F 15.8 °F 80% 30.24 in 10.0 mi NNW 8.1 mph - N/A   Overcast
3:55 PM 19.4 °F 8.6 °F 15.8 °F 86% 30.24 in 10.0 mi North 9.2 mph - N/A   Overcast
4:15 PM 19.4 °F 7.9 °F 14.0 °F 80% 30.24 in 10.0 mi NNW 10.4 mph - N/A   Overcast
4:35 PM 19.4 °F 9.5 °F 14.0 °F 80% 30.24 in 10.0 mi NNW 8.1 mph - N/A   Overcast
4:55 PM 19.4 °F 11.5 °F 14.0 °F 80% 30.24 in 10.0 mi NNW 5.8 mph - N/A   Mostly Cloudy
5:15 PM 17.6 °F 7.3 °F 14.0 °F 86% 30.24 in 10.0 mi NW 8.1 mph - N/A   Scattered Clouds
5:35 PM 15.8 °F 6.1 °F 12.2 °F 86% 30.25 in 10.0 mi NNW 6.9 mph - N/A   Clear
5:55 PM 15.8 °F 5.1 °F 12.2 °F 86% 30.26 in 10.0 mi NNW 8.1 mph - N/A   Clear
6:15 PM 14.0 °F 3.9 °F 12.2 °F 93% 30.26 in 10.0 mi North 6.9 mph - N/A   Clear
6:35 PM 14.0 °F 5.1 °F 10.4 °F 86% 30.27 in 10.0 mi North 5.8 mph - N/A   Clear
6:55 PM 12.2 °F 4.3 °F 8.6 °F 85% 30.27 in 10.0 mi North 4.6 mph - N/A   Clear
7:15 PM 14.0 °F 8.2 °F 12.2 °F 93% 30.28 in 10.0 mi NNW 3.5 mph - N/A   Clear
7:35 PM 12.2 °F 6.1 °F 10.4 °F 92% 30.28 in 10.0 mi North 3.5 mph - N/A   Clear
7:55 PM 12.2 °F - 10.4 °F 92% 30.29 in 7.0 mi Calm Calm - N/A   Clear
8:15 PM 10.4 °F 4.0 °F 8.6 °F 92% 30.28 in 5.0 mi NE 3.5 mph - N/A   Clear
8:35 PM 8.6 °F - 3.2 °F 79% 30.27 in 5.0 mi Calm Calm - N/A   Clear
8:55 PM 10.4 °F 4.0 °F 8.6 °F 92% 30.28 in 5.0 mi North 3.5 mph - N/A   Clear
9:15 PM 8.6 °F 2.0 °F 5.0 °F 85% 30.29 in 2.0 mi NNW 3.5 mph - N/A   Clear
9:35 PM 5.0 °F -4.1 °F 3.2 °F 92% 30.30 in 1.8 mi North 4.6 mph - N/A   Unknown
9:55 PM 8.6 °F 0.1 °F 5.0 °F 85% 30.30 in 5.0 mi North 4.6 mph - N/A   Clear
10:15 PM 10.4 °F 2.2 °F 6.8 °F 85% 30.31 in 7.0 mi North 4.6 mph - N/A   Mostly Cloudy
10:35 PM 12.2 °F 2.9 °F 10.4 °F 92% 30.31 in 10.0 mi NNE 5.8 mph - N/A   Overcast
10:55 PM 12.2 °F 4.3 °F 10.4 °F 92% 30.30 in 10.0 mi NNE 4.6 mph - N/A   Overcast
11:15 PM 14.0 °F 8.2 °F 10.4 °F 86% 30.30 in 10.0 mi NNE 3.5 mph - N/A   Overcast
11:35 PM 14.0 °F 8.2 °F 10.4 °F 86% 30.29 in 10.0 mi NE 3.5 mph - N/A   Overcast
11:55 PM 14.0 °F 8.2 °F 10.4 °F 86% 30.29 in 5.0 mi East 3.5 mph - N/A   Overcast